• en Suisse
  • Liste des pays
  • À 7 jours
  • Température de l'eau
  • Carte satellitaire
  • Carte météo
  • Widgets météo
  • user-avatar
    Se connecter

    Météo par heure à Pichkiryaevo

    Ce jour, 24 Mai, Jeudi

    Heure Température Précipitation Vent Pression Humidité
    00:00 +18°C° 0,3 mm 1 m/s 752 mmHg 91%
    01:00 +18°C° 0,5 mm 1 m/s 752 mmHg 92%
    02:00 +18°C° 0,5 mm 1 m/s 752 mmHg 94%
    03:00 +18°C° 0,5 mm 1 m/s 752 mmHg 95%
    04:00 +18°C° 1,8 mm 1 m/s 752 mmHg 95%
    05:00 +18°C° 1,8 mm 1 m/s 751 mmHg 96%
    06:00 +18°C° 1,8 mm 1 m/s 751 mmHg 96%
    07:00 +18°C° 0,7 mm 1 m/s 751 mmHg 95%
    08:00 +17°C° 0,7 mm 2 m/s 751 mmHg 94%
    09:00 +18°C° 0,7 mm 2 m/s 751 mmHg 93%
    10:00 +18°C° 0,6 mm 2 m/s 751 mmHg 92%
    11:00 +19°C° 0,6 mm 2 m/s 751 mmHg 90%
    12:00 +19°C° 0,6 mm 2 m/s 751 mmHg 89%
    13:00 +19°C° 0,4 mm 3 m/s 751 mmHg 88%
    14:00 +20°C° 0,4 mm 3 m/s 750 mmHg 87%
    15:00 +20°C° 0,4 mm 3 m/s 750 mmHg 86%
    16:00 +20°C° 0,3 mm 3 m/s 750 mmHg 87%
    17:00 +20°C° 0,3 mm 3 m/s 750 mmHg 87%
    18:00 +19°C° 0,3 mm 3 m/s 750 mmHg 88%
    19:00 +19°C° 0,1 mm 3 m/s 750 mmHg 89%
    20:00 +18°C° 0,1 mm 3 m/s 750 mmHg 90%
    21:00 +17°C° 0,1 mm 3 m/s 750 mmHg 92%
    22:00 +17°C° 0 mm 3 m/s 750 mmHg 91%
    23:00 +15°C° 0 mm 4 m/s 750 mmHg 89%

    Demain, 25 Mai, Vendredi

    Heure Température Précipitation Vent Pression Humidité
    00:00 +15°C° 0 mm 4 m/s 750 mmHg 88%
    01:00 +14°C° 0 mm 4 m/s 750 mmHg 87%
    02:00 +14°C° 0 mm 5 m/s 750 mmHg 86%
    03:00 +14°C° 0 mm 5 m/s 750 mmHg 85%
    04:00 +13°C° 0 mm 5 m/s 751 mmHg 84%
    05:00 +13°C° 0 mm 6 m/s 751 mmHg 84%
    06:00 +13°C° 0 mm 6 m/s 751 mmHg 83%
    07:00 +14°C° 0 mm 7 m/s 752 mmHg 75%
    08:00 +14°C° 0 mm 7 m/s 752 mmHg 67%
    09:00 +15°C° 0 mm 7 m/s 753 mmHg 60%
    10:00 +16°C° 0 mm 7 m/s 753 mmHg 56%
    11:00 +16°C° 0 mm 7 m/s 754 mmHg 52%
    12:00 +17°C° 0 mm 7 m/s 754 mmHg 49%
    13:00 +17°C° 0 mm 7 m/s 754 mmHg 48%
    14:00 +17°C° 0 mm 7 m/s 754 mmHg 48%
    15:00 +17°C° 0 mm 7 m/s 755 mmHg 47%
    16:00 +16°C° 0 mm 6 m/s 755 mmHg 50%
    17:00 +16°C° 0 mm 5 m/s 755 mmHg 53%
    18:00 +15°C° 0 mm 5 m/s 756 mmHg 56%
    19:00 +13°C° 0 mm 4 m/s 756 mmHg 59%
    20:00 +12°C° 0 mm 3 m/s 757 mmHg 63%
    21:00 +10°C° 0 mm 3 m/s 757 mmHg 67%
    22:00 +9°C° 0 mm 3 m/s 758 mmHg 69%
    23:00 +8°C° 0 mm 2 m/s 758 mmHg 71%

    Après-demain, 26 Mai, Samedi

    Heure Température Précipitation Vent Pression Humidité
    00:00 +8°C° 0 mm 2 m/s 759 mmHg 73%
    01:00 +7°C° 0 mm 2 m/s 759 mmHg 73%
    02:00 +7°C° 0 mm 2 m/s 760 mmHg 73%
    03:00 +6°C° 0 mm 2 m/s 760 mmHg 73%
    04:00 +7°C° 0 mm 2 m/s 760 mmHg 71%
    05:00 +7°C° 0 mm 2 m/s 761 mmHg 68%
    06:00 +8°C° 0 mm 3 m/s 761 mmHg 65%
    07:00 +10°C° 0 mm 3 m/s 762 mmHg 59%
    08:00 +11°C° 0 mm 3 m/s 762 mmHg 52%
    09:00 +13°C° 0 mm 4 m/s 762 mmHg 46%
    10:00 +14°C° 0 mm 3 m/s 762 mmHg 43%
    11:00 +16°C° 0 mm 3 m/s 762 mmHg 41%
    12:00 +17°C° 0 mm 3 m/s 763 mmHg 38%
    13:00 +18°C° 0 mm 3 m/s 762 mmHg 38%
    14:00 +18°C° 0 mm 2 m/s 762 mmHg 37%
    15:00 +19°C° 0 mm 2 m/s 762 mmHg 37%
    16:00 +19°C° 0 mm 2 m/s 762 mmHg 41%
    17:00 +20°C° 0 mm 1 m/s 762 mmHg 45%
    18:00 +19°C° 0 mm 1 m/s 762 mmHg 49%
    19:00 +16°C° 0 mm 1 m/s 762 mmHg 53%
    20:00 +14°C° 0 mm 1 m/s 762 mmHg 56%
    21:00 +12°C° 0 mm 1 m/s 762 mmHg 59%
    22:00 +11°C° 0 mm 1 m/s 762 mmHg 62%
    23:00 +10°C° 0 mm 2 m/s 762 mmHg 64%

    27 Mai, Dimanche

    Heure Température Précipitation Vent Pression Humidité
    00:00 +9°C° 0 mm 2 m/s 762 mmHg 67%
    01:00 +9°C° 0 mm 2 m/s 762 mmHg 69%
    02:00 +8°C° 0 mm 2 m/s 762 mmHg 72%
    03:00 +8°C° 0 mm 2 m/s 762 mmHg 74%
    04:00 +9°C° 0 mm 2 m/s 762 mmHg 74%
    05:00 +9°C° 0 mm 2 m/s 762 mmHg 73%
    06:00 +10°C° 0 mm 2 m/s 762 mmHg 73%
    07:00 +13°C° 0 mm 2 m/s 762 mmHg 67%
    08:00 +14°C° 0 mm 3 m/s 762 mmHg 62%
    09:00 +17°C° 0 mm 3 m/s 761 mmHg 56%
    10:00 +18°C° 0 mm 3 m/s 761 mmHg 53%
    11:00 +19°C° 0 mm 4 m/s 761 mmHg 51%
    12:00 +19°C° 0 mm 4 m/s 760 mmHg 48%
    13:00 +20°C° 0 mm 4 m/s 760 mmHg 48%
    14:00 +20°C° 0 mm 4 m/s 759 mmHg 48%
    15:00 +20°C° 0 mm 4 m/s 758 mmHg 48%
    16:00 +20°C° 0 mm 4 m/s 758 mmHg 52%
    17:00 +19°C° 0 mm 4 m/s 757 mmHg 56%
    18:00 +19°C° 0 mm 3 m/s 757 mmHg 60%
    19:00 +17°C° 0 mm 3 m/s 757 mmHg 66%
    20:00 +14°C° 0 mm 3 m/s 756 mmHg 72%
    21:00 +12°C° 0 mm 3 m/s 756 mmHg 77%
    22:00 +12°C° 0 mm 3 m/s 756 mmHg 78%
    23:00 +11°C° 0 mm 3 m/s 756 mmHg 79%

    28 Mai, Lundi

    Heure Température Précipitation Vent Pression Humidité
    00:00 +11°C° 0 mm 3 m/s 755 mmHg 80%
    01:00 +11°C° 0 mm 3 m/s 755 mmHg 80%
    02:00 +11°C° 0 mm 3 m/s 755 mmHg 80%
    03:00 +11°C° 0 mm 3 m/s 755 mmHg 80%
    04:00 +11°C° 0,1 mm 3 m/s 755 mmHg 81%
    05:00 +11°C° 0,1 mm 3 m/s 755 mmHg 83%
    06:00 +13°C° 0,1 mm 2 m/s 755 mmHg 84%
    07:00 +14°C° 0,1 mm 2 m/s 755 mmHg 84%
    08:00 +13°C° 0,1 mm 3 m/s 755 mmHg 84%
    09:00 +14°C° 0,1 mm 3 m/s 756 mmHg 84%
    10:00 +16°C° 0,1 mm 3 m/s 756 mmHg 73%
    11:00 +18°C° 0,1 mm 4 m/s 756 mmHg 63%
    12:00 +19°C° 0,1 mm 4 m/s 756 mmHg 52%
    13:00 +19°C° 0 mm 4 m/s 756 mmHg 49%
    14:00 +19°C° 0 mm 5 m/s 756 mmHg 47%
    15:00 +19°C° 0 mm 5 m/s 756 mmHg 44%
    16:00 +19°C° 0 mm 4 m/s 756 mmHg 46%
    17:00 +18°C° 0 mm 4 m/s 757 mmHg 49%
    18:00 +17°C° 0 mm 4 m/s 757 mmHg 51%
    19:00 +14°C° 0 mm 3 m/s 757 mmHg 55%
    20:00 +12°C° 0 mm 3 m/s 757 mmHg 59%
    21:00 +10°C° 0 mm 2 m/s 757 mmHg 63%
    22:00 +9°C° 0 mm 2 m/s 758 mmHg 64%
    23:00 +8°C° 0 mm 2 m/s 758 mmHg 65%

    29 Mai, Mardi

    Heure Température Précipitation Vent Pression Humidité
    00:00 +7°C° 0 mm 2 m/s 758 mmHg 66%
    01:00 +7°C° 0 mm 2 m/s 758 mmHg 67%
    02:00 +7°C° 0 mm 2 m/s 757 mmHg 68%
    03:00 +6°C° 0 mm 2 m/s 757 mmHg 69%
    04:00 +7°C° 0 mm 3 m/s 757 mmHg 67%
    05:00 +8°C° 0 mm 4 m/s 757 mmHg 65%
    06:00 +9°C° 0 mm 5 m/s 756 mmHg 62%
    07:00 +10°C° 0 mm 5 m/s 756 mmHg 60%
    08:00 +13°C° 0 mm 6 m/s 756 mmHg 57%
    09:00 +14°C° 0 mm 6 m/s 756 mmHg 54%
    10:00 +16°C° 0 mm 6 m/s 755 mmHg 53%
    11:00 +17°C° 0 mm 6 m/s 755 mmHg 52%
    12:00 +19°C° 0 mm 6 m/s 755 mmHg 51%
    13:00 +20°C° 0 mm 6 m/s 755 mmHg 50%
    14:00 +20°C° 0 mm 6 m/s 755 mmHg 49%
    15:00 +20°C° 0 mm 6 m/s 754 mmHg 48%
    16:00 +20°C° 0 mm 5 m/s 754 mmHg 51%
    17:00 +19°C° 0 mm 4 m/s 754 mmHg 54%
    18:00 +19°C° 0 mm 3 m/s 754 mmHg 57%
    19:00 +17°C° 0 mm 3 m/s 754 mmHg 62%
    20:00 +15°C° 0 mm 2 m/s 754 mmHg 68%
    21:00 +13°C° 0 mm 1 m/s 755 mmHg 73%
    22:00 +12°C° 0 mm 1 m/s 755 mmHg 75%
    23:00 +12°C° 0 mm 1 m/s 755 mmHg 78%
    Voir plus